Rhodes, Greece

3:08 AM EET on March 24, 2017 (GMT +0200)
Diagoras

Weather History for LGRP - October, 2011

Change the Weather History Date:

Sunday, October 9, 2011

  Actual Average Record
Temperature  
Mean Temperature 74 °F -  
Max Temperature 79 °F 74 °F 86 °F (1998)
Min Temperature 69 °F 60 °F 56 °F (2013)
Cooling Degree Days 9    
Growing Degree Days 24 (Base 50)    
Moisture  
Dew Point 69 °F    
Average Humidity 81    
Maximum Humidity 94    
Minimum Humidity 70    
Precipitation  
Precipitation 0.28 in 0.09 in - ()
Sea Level Pressure  
Sea Level Pressure 29.77 in    
Wind  
Wind Speed 6 mph ()    
Max Wind Speed 21 mph    
Max Gust Speed 29 mph    
Visibility 5.7 miles    
Events Rain , Thunderstorm    
Averages and records for this station are not official NWS values.
T = Trace of Precipitation, MM = Missing Value Source: Averaged Metar Reports

Daily Weather History Graph

Daily Weather History Graph

Search for Another Location

Airport or City:

Trip Planner

Search our weather history database for the weather conditions in past years. The results will help you decide how hot, cold, wet, or windy it might be!

Date:

Astronomy

Oct. 09, 2011 Rise Set
Actual Time 7:09 AM EEST 6:40 PM EEST
Civil Twilight 6:43 AM EEST 7:06 PM EEST
Nautical Twilight 6:13 AM EEST 7:36 PM EEST
Astronomical Twilight 5:43 AM EEST 8:05 PM EEST
Moon 5:06 PM EEST (10/9) 4:38 AM EEST (10/9)
Length of Visible Light 12h 23m
Length of Day
11h 31m
Waxing Gibbous, 93% of the Moon is Illuminated
Oct 9
Waxing Gibbous
Oct 12
Full
Oct 20
Last Quarter
Oct 26
New
Nov 2
First Quarter

Hourly Weather History & Observations

Time (EEST) Temp. Heat Index Dew Point Humidity Pressure Visibility Wind Dir Wind Speed Gust Speed Precip Events Conditions
12:20 AM 75.2 °F - 66.2 °F 73% 29.86 in 6.2 mi Variable 3.5 mph - N/A   Scattered Clouds
12:50 AM 75.2 °F - 68.0 °F 78% 29.86 in 6.2 mi Variable 3.5 mph - N/A   Scattered Clouds
1:20 AM 75.2 °F - 68.0 °F 78% 29.86 in 6.2 mi Calm Calm - N/A Rain Rain
1:50 AM 73.4 °F - 69.8 °F 88% 29.86 in 6.2 mi SE 4.6 mph - N/A Rain Rain
2:20 AM 73.4 °F - 69.8 °F 88% 29.86 in 6.2 mi SE 3.5 mph - N/A Rain Rain
2:50 AM 71.6 °F - 64.4 °F 78% 29.80 in 6.2 mi Calm Calm - N/A   Mostly Cloudy
3:00 AM 71 °F - 65 °F 76% 29.82 in 6 mi Calm Calm - - Rain Light Rain
3:20 AM 71.6 °F - 64.4 °F 78% 29.80 in 6.2 mi ENE 5.8 mph - N/A   Mostly Cloudy
3:50 AM 73.4 °F - 68.0 °F 83% 29.80 in 6.2 mi ENE 4.6 mph - N/A   Scattered Clouds
4:20 AM 73.4 °F - 68.0 °F 83% 29.77 in 6.2 mi ESE 4.6 mph - N/A   Scattered Clouds
4:50 AM 73.4 °F - 68.0 °F 83% 29.77 in 6.2 mi Variable 4.6 mph 11.5 mph N/A   Scattered Clouds
5:20 AM 73.4 °F - 68.0 °F 83% 29.74 in 6.2 mi Variable 8.1 mph 20.7 mph N/A   Scattered Clouds
5:50 AM 75.2 °F - 68.0 °F 78% 29.74 in 6.2 mi Variable 8.1 mph 23.0 mph N/A   Scattered Clouds
6:20 AM 75.2 °F - 68.0 °F 78% 29.77 in 6.2 mi ESE 13.8 mph 27.6 mph N/A   Scattered Clouds
6:50 AM 75.2 °F - 68.0 °F 78% 29.74 in 6.2 mi SE 8.1 mph 27.6 mph N/A   Scattered Clouds
7:20 AM 75.2 °F - 68.0 °F 78% 29.74 in 6.2 mi SE 10.4 mph 25.3 mph N/A   Mostly Cloudy
7:50 AM 75.2 °F - 68.0 °F 78% 29.74 in 6.2 mi East 11.5 mph 23.0 mph N/A   Mostly Cloudy
8:20 AM 75.2 °F - 68.0 °F 78% 29.74 in 6.2 mi ESE 11.5 mph 23.0 mph N/A   Mostly Cloudy
8:50 AM 75.2 °F - 69.8 °F 83% 29.74 in 6.2 mi ESE 16.1 mph 28.8 mph N/A   Mostly Cloudy
9:00 AM 76 °F - 70 °F 76% 29.75 in 6 mi ESE 16.1 mph - -   Partly Cloudy
9:20 AM 75.2 °F - 69.8 °F 83% 29.74 in 6.2 mi ESE 13.8 mph 28.8 mph N/A   Mostly Cloudy
9:50 AM 77.0 °F - 69.8 °F 78% 29.77 in 6.2 mi ESE 11.5 mph 25.3 mph N/A   Mostly Cloudy
10:20 AM 77.0 °F - 69.8 °F 78% 29.77 in 6.2 mi SSE 13.8 mph 25.3 mph N/A   Mostly Cloudy
10:50 AM 78.8 °F - 69.8 °F 74% 29.77 in 6.2 mi South 13.8 mph 25.3 mph N/A   Mostly Cloudy
11:20 AM 78.8 °F - 69.8 °F 74% 29.77 in 6.2 mi South 13.8 mph 25.3 mph N/A   Mostly Cloudy
12:20 PM 78.8 °F - 71.6 °F 78% 29.77 in 6.2 mi SSW 11.5 mph - N/A   Mostly Cloudy
12:50 PM 78.8 °F - 71.6 °F 78% 29.77 in 6.2 mi South 13.8 mph - N/A   Mostly Cloudy
1:20 PM 80.6 °F 83.9 °F 69.8 °F 70% 29.77 in 6.2 mi SSW 9.2 mph - N/A   Mostly Cloudy
1:50 PM 80.6 °F 84.6 °F 71.6 °F 74% 29.77 in 6.2 mi SSW 6.9 mph 18.4 mph N/A   Mostly Cloudy
2:20 PM 80.6 °F 84.6 °F 71.6 °F 74% 29.77 in 6.2 mi ESE 11.5 mph 25.3 mph N/A   Mostly Cloudy
2:50 PM 78.8 °F - 71.6 °F 78% 29.77 in 6.2 mi SSE 3.5 mph 13.8 mph N/A   Mostly Cloudy
3:00 PM 79 °F - 71 °F 70% 29.79 in 6 mi SSE 3.5 mph - -   Mostly Cloudy
3:20 PM 78.8 °F - 71.6 °F 78% 29.77 in 6.2 mi SSE 5.8 mph - N/A   Mostly Cloudy
3:50 PM 78.8 °F - 71.6 °F 78% 29.71 in 6.2 mi SSW 6.9 mph 18.4 mph N/A   Mostly Cloudy
4:20 PM 78.8 °F - 71.6 °F 78% 29.71 in 6.2 mi SSW 6.9 mph 18.4 mph N/A   Mostly Cloudy
4:50 PM 80.6 °F 85.4 °F 73.4 °F 79% 29.71 in 6.2 mi Calm Calm - N/A Rain Light Rain
5:20 PM 77.0 °F - 73.4 °F 89% 29.71 in 0.6 mi South 5.8 mph 17.3 mph N/A Rain , Thunderstorm Heavy Thunderstorms and Rain
5:50 PM 71.6 °F - 69.8 °F 94% 29.74 in 1.2 mi West 20.7 mph - N/A Rain , Thunderstorm Thunderstorms and Rain
6:20 PM 71.6 °F - 69.8 °F 94% 29.74 in 1.2 mi WSW 15.0 mph - N/A Rain , Thunderstorm Light Thunderstorms and Rain
6:50 PM 69.8 °F - 68.0 °F 94% 29.74 in 1.2 mi WSW 13.8 mph - N/A Rain Rain
7:20 PM 69.8 °F - 66.2 °F 88% 29.74 in 3.7 mi SSE 4.6 mph - N/A   Mostly Cloudy
7:50 PM 69.8 °F - 66.2 °F 88% 29.77 in 6.2 mi ESE 3.5 mph - N/A   Mostly Cloudy
8:20 PM 69.8 °F - 66.2 °F 88% 29.77 in 6.2 mi Calm Calm - N/A   Mostly Cloudy
8:50 PM 69.8 °F - 68.0 °F 94% 29.80 in 5.6 mi Calm Calm - N/A Rain Light Rain
9:00 PM 69 °F - 67 °F 92% 29.80 in 6 mi Calm Calm - - Rain Light Rain
9:20 PM 69.8 °F - 68.0 °F 94% 29.80 in 5.6 mi ESE 4.6 mph - N/A Rain Light Rain
9:50 PM 69.8 °F - 66.2 °F 88% 29.80 in 6.2 mi SE 5.8 mph - N/A   Mostly Cloudy
10:20 PM 69.8 °F - 66.2 °F 88% 29.80 in 6.2 mi SE 4.6 mph - N/A   Mostly Cloudy
10:50 PM 69.8 °F - 64.4 °F 83% 29.77 in 6.2 mi ESE 3.5 mph - N/A   Mostly Cloudy
11:20 PM 69.8 °F - 64.4 °F 83% 29.77 in 6.2 mi ESE 3.5 mph - N/A   Mostly Cloudy
11:50 PM 69.8 °F - 62.6 °F 78% 29.74 in 6.2 mi ESE 3.5 mph - N/A   Mostly Cloudy